Home   Weather   Georgsmarienhütte   Past weeks

Flag for Germany Past Weather in Georgsmarienhütte, Lower Saxony, Germany — Yesterday and Last 2 Weeks

Now
70 °F

Passing clouds.


Feels Like: 70 °F
Forecast: 59 / 87 °F
Wind: 5 mph from Southwest

Location: Muenster / Osnabrueck

Current Time: May 28, 2017 at 10:34:27 am

Latest Report: May 28, 2017 at 9:50 am


Visibility: N/A

Pressure: 30.09 "Hg

Humidity: 69%

Dew Point: 59 °F

Location of GeorgsmarienhütteLocation

Past Weather in Georgsmarienhütte — Graph

°F

Georgsmarienhütte Temperature Yesterday

Maximum temperature yesterday: 86 °F (at 4:50 pm)
Minimum temperature yesterday: 59 °F (at 2:20 am)
Average temperature yesterday: 73 °F

High & Low Weather Summary for the Past Weeks

 TemperatureHumidityPressure
High86 °F (May 27, 4:50 pm)100% (May 14, 4:20 am)30.39 "Hg (May 14, 4:20 am)
Low41 °F (May 21, 5:20 am)27% (May 15, 7:20 pm)29.77 "Hg (May 19, 2:50 am)
Average64 °F65%30.12 "Hg
* Reported May 13 9:20 am — May 28 9:20 am, Georgsmarienhütte. Weather by CustomWeather, © 2017

Note: Actual official high and low records may vary slightly from our data, if they occured in-between our weather recording intervals... More about our weather records

Advertising

Georgsmarienhütte Weather History for the Previous 24 Hours

Scroll right to see more
 ConditionsComfort  
Time TempWeatherWind HumidityBarometerVisibility
9:20 am
Sun, May 28
68 °FScattered showers. Passing clouds.2 mph78%30.07 "HgN/A
8:50 am66 °FThundershowers. Broken clouds.5 mph83%30.09 "HgN/A
8:20 am63 °FThundershowers. Broken clouds.2 mph94%30.07 "HgN/A
7:50 am64 °FThunderstorms. Partly sunny.3 mph78%30.07 "HgN/A
7:20 am64 °FThundershowers. Partly sunny.3 mph83%30.07 "HgN/A
6:50 am64 °FSprinkles. Partly sunny.5 mph78%30.07 "HgN/A
6:20 am64 °FPassing clouds.8 mph78%30.07 "HgN/A
5:50 am59 °FPassing clouds.5 mph88%30.07 "HgN/A
5:20 am61 °FSunny.1 mph83%30.04 "Hg10 mi
4:50 am61 °FClear.1 mph83%30.04 "Hg10 mi
4:20 am63 °FClear.1 mph77%30.04 "Hg10 mi
3:50 am63 °FClear.1 mph77%30.04 "Hg10 mi
3:20 am63 °FClear.1 mph77%30.04 "Hg10 mi
2:20 am64 °FClear.1 mph73%30.04 "Hg10 mi
1:50 am68 °FPassing clouds.3 mph64%30.04 "HgN/A
1:20 am70 °FPassing clouds.5 mph60%30.04 "HgN/A
12:50 am70 °FPassing clouds.3 mph60%30.04 "HgN/A
12:20 am72 °FPassing clouds.3 mph57%30.04 "HgN/A
11:50 pm
Sat, May 27
72 °FPassing clouds.6 mph57%30.04 "HgN/A
11:20 pm73 °FPassing clouds.5 mph53%30.04 "HgN/A
10:50 pm75 °FPassing clouds.6 mph50%30.04 "HgN/A
10:20 pm75 °FPassing clouds.5 mph50%30.04 "HgN/A
9:20 pm79 °FPassing clouds.3 mph45%30.01 "HgN/A
8:50 pm81 °FPassing clouds.5 mph42%30.01 "HgN/A
8:20 pm82 °FSunny.5 mph40%30.01 "Hg10 mi
7:50 pm84 °FPassing clouds.6 mph37%30.01 "HgN/A
6:50 pm84 °FPassing clouds.9 mph35%30.01 "HgN/A
6:20 pm86 °FPassing clouds.9 mph33%30.01 "HgN/A
5:50 pm86 °FPassing clouds.9 mph33%30.01 "HgN/A
5:20 pm86 °FPassing clouds.8 mph33%30.01 "HgN/A
4:50 pm86 °FPassing clouds.9 mph33%30.04 "HgN/A
3:50 pm84 °FPassing clouds.8 mph33%30.04 "HgN/A
3:20 pm84 °FPassing clouds.10 mph31%30.04 "HgN/A
2:50 pm84 °FPassing clouds.12 mph33%30.07 "HgN/A
2:20 pm82 °FPassing clouds.10 mph35%30.07 "HgN/A
1:50 pm84 °FSunny.10 mph33%30.07 "Hg10 mi
1:20 pm82 °FPassing clouds.9 mph37%30.07 "HgN/A
12:50 pm81 °FPassing clouds.10 mph39%30.09 "HgN/A
12:20 pm81 °FSunny.7 mph42%30.09 "Hg10 mi
11:50 am79 °FPassing clouds.7 mph45%30.09 "HgN/A
11:20 am77 °FPassing clouds.8 mph47%30.09 "HgN/A
10:50 am75 °FPassing clouds.9 mph50%30.12 "HgN/A
10:20 am75 °FPassing clouds.9 mph50%30.12 "HgN/A
Weather by CustomWeather, © 2017

See weather overviewHow to use our weather pages